Content
SEND FEEDBACK

Daily
Averages
Monthly
Summary
Switzerland

PAYERNE, SWITZERLAND


Home > Europe > Switzerland
Elevation: 1463 feet     Latitude: 46 50N     Longitude: 006 55E

WEATHER
 
SELECT A DAY
Number of Records: 87,227;   Date Range: 12/15/98 - 9/22/14
 
SHARE

PRINT THIS DATA

[ ← Previous Day ]
WEATHER ALMANAC - JULY 22, 2014
[ Next Day → ]
[ °C ]   °F
Weather ElementAverageHighLow
Temperature58.6 °F60.8 °F (3:50 pm)55.4 °F (7:50 am)
Dewpoint58.3 °F60.8 °F (3:50 pm)55.4 °F (7:20 am)
Humidity98.9 %100 % (2:20 am)94 % (12:50 am)
Barometer30.05 in30.09 in (9:50 pm)30.01 in (3:50 am)
Wind Speed4.3 mph8.1 mph (7:20 pm)
Weather ElementAverage
Visibility4.2 mi
Wind DirectionESE (100.9 °)

Weather ElementTotal
Precipitation---
Heating Degree Days6.9 (Base 65)
Growing Degree Days8.1 (Base 50)
Averaged from 47 records on July 22, 2014
WEATHER CONDITIONS BREAKOUT
WIND DIRECTION BREAKOUT
WEATHER BY HOUR - JULY 22, 2014
[ °C ]   °F
Local TimeTemperatureDewpointHumidityBarometerVisibilityWind DirectionWind SpeedGust SpeedPrecipitationEventsConditions
12:50 AM59.0 °F57.2 °F94 %30.04 in6.2 miVariable4.6 mphScattered Clouds
1:20 AM59.0 °F57.2 °F94 %30.04 in6.2 miVariable3.5 mphOvercast
1:50 AM59.0 °F57.2 °F94 %30.04 in1.0 miVariable1.2 mphRainHeavy Rain Showers
2:20 AM57.2 °F57.2 °F100 %30.04 in6.2 miVariable5.8 mphOvercast
2:50 AM57.2 °F57.2 °F100 %30.04 in6.2 miVariable3.5 mphDrizzle
3:20 AM57.2 °F57.2 °F100 %30.04 in6.2 miVariable2.3 mphDrizzle
3:50 AM57.2 °F57.2 °F100 %30.01 inVariable3.5 mphRainLight Rain Showers
4:20 AM57.2 °F57.2 °F100 %30.01 in4.3 miVariable3.5 mphMostly Cloudy
4:50 AM57.2 °F57.2 °F100 %30.01 in4.3 miNNW (330°)3.5 mphOvercast
5:20 AM57.2 °F57.2 °F100 %30.04 in2.2 miNorth (10°)3.5 mphDrizzle
5:50 AM57.2 °F57.2 °F100 %30.04 in1.3 miVariable2.3 mphRainLight Rain Showers
6:20 AM57.2 °F57.2 °F100 %30.04 in0.9 miNW (310°)3.5 mphRainLight Rain
6:50 AM57.2 °F57.2 °F100 %30.04 inVariable2.3 mphDrizzle
7:20 AM57.2 °F55.4 °F94 %30.04 in1.4 miVariable1.2 mphLight Drizzle
7:50 AM55.4 °F55.4 °F100 %30.04 in2.5 miWest (270°)4.6 mphRainLight Rain
8:20 AM55.4 °F55.4 °F100 %30.04 in6.2 miVariable4.6 mphOvercast
8:50 AM55.4 °F55.4 °F100 %30.04 in2.5 miVariable3.5 mphRainLight Rain
9:20 AM55.4 °F55.4 °F100 %30.04 in1.9 miVariable2.3 mphLight Drizzle
9:50 AM55.4 °F55.4 °F100 %30.04 in1.9 miVariable3.5 mphLight Drizzle
10:20 AM55.4 °F55.4 °F100 %30.06 in1.9 miWest (270°)5.8 mphLight Drizzle
10:50 AM57.2 °F55.4 °F94 %30.04 in6.2 miWest (270°)4.6 mphRainLight Rain
11:20 AM57.2 °F57.2 °F100 %30.04 in1.9 miWest (260°)4.6 mphLight Drizzle
11:50 AM57.2 °F57.2 °F100 %30.06 in1.9 miWest (260°)5.8 mphLight Drizzle
12:20 PM57.2 °F57.2 °F100 %30.06 in1.9 miWest (260°)4.6 mphLight Drizzle
12:50 PM59.0 °F59.0 °F100 %30.06 in5.0 miWest (270°)4.6 mphRainLight Rain
1:20 PM59.0 °F57.2 °F94 %30.04 in6.2 miWSW (250°)4.6 mphRainLight Rain
1:50 PM59.0 °F57.2 °F94 %30.06 in6.2 miWest (260°)4.6 mphRainLight Rain
2:20 PM59.0 °F59.0 °F100 %30.06 in1.9 miWest (260°)4.6 mphLight Drizzle
2:50 PM59.0 °F59.0 °F100 %30.06 in1.9 miWNW (290°)4.6 mphLight Drizzle
3:20 PM59.0 °F59.0 °F100 %30.06 in1.9 miWNW (290°)5.8 mphLight Drizzle
3:50 PM60.8 °F60.8 °F100 %30.06 inVariable3.5 mphDrizzle
4:20 PM60.8 °F60.8 °F100 %30.06 in3.1 miNNW (340°)4.6 mphDrizzle
4:50 PM60.8 °F59.0 °F94 %30.06 in4.3 miVariable3.5 mphLight Drizzle
5:20 PM60.8 °F59.0 °F94 %30.06 inNNE (30°)3.5 mphDrizzle
5:50 PM60.8 °F60.8 °F100 %30.06 in6.2 miNE (40°)5.8 mphRainLight Rain Showers
6:20 PM60.8 °F60.8 °F100 %30.06 in6.2 miNNE (30°)6.9 mphMostly Cloudy
6:50 PM60.8 °F60.8 °F100 %30.06 in6.2 miNE (40°)6.9 mphMostly Cloudy
7:20 PM60.8 °F60.8 °F100 %30.06 in6.2 miNE (40°)8.1 mphMostly Cloudy
7:50 PM60.8 °F60.8 °F100 %30.06 in5.6 miNNE (30°)6.9 mphScattered Clouds
8:20 PM60.8 °F60.8 °F100 %30.06 in6.2 miNNE (30°)4.6 mphMostly Cloudy
8:50 PM60.8 °F60.8 °F100 %30.06 in6.2 miNNE (20°)3.5 mphScattered Clouds
9:20 PM60.8 °F60.8 °F100 %30.06 in6.2 miNE (50°)5.8 mphLight Drizzle
9:50 PM60.8 °F60.8 °F100 %30.09 in5.0 miNE (50°)5.8 mphRainLight Rain Showers
10:20 PM60.8 °F60.8 °F100 %30.09 in3.1 miEast (80°)3.5 mphRainHeavy Rain
10:50 PM60.8 °F60.8 °F100 %30.09 in6.2 miVariable3.5 mphScattered Clouds
11:20 PM60.8 °F60.8 °F100 %30.09 in6.2 miNE (50°)5.8 mphMostly Cloudy
11:50 PM60.8 °F60.8 °F100 %30.09 in6.2 miNE (50°)3.5 mphScattered Clouds
Hourly data recorded from LSGC, located miles away from Payerne, Switzerland







STORIES FROM OUR PARTNERS